Kozani Airport, Greece

2:39 AM EEST on September 26, 2016 (GMT +0300)
Filippos

Weather History for LGKZ - November, 2012

Change the Weather History Date:

Thursday, November 22, 2012

  Actual Average Record
Temperature  
Mean Temperature 49 °F -  
Max Temperature 57 °F - - ()
Min Temperature 41 °F - - ()
Degree Days  
Heating Degree Days 16    
Moisture  
Dew Point 42 °F    
Average Humidity 82    
Maximum Humidity 93    
Minimum Humidity 63    
Precipitation  
Precipitation 0.00 in - - ()
Sea Level Pressure  
Sea Level Pressure 30.20 in    
Wind  
Wind Speed 3 mph ()    
Max Wind Speed 7 mph    
Max Gust Speed -    
Visibility 6.2 miles    
Events      
T = Trace of Precipitation, MM = Missing Value Source: Averaged Metar Reports

Daily Weather History Graph

Daily Weather History Graph

Search for Another Location

Airport or City:

Trip Planner

Search our weather history database for the weather conditions in past years. The results will help you decide how hot, cold, wet, or windy it might be!

Date:

Astronomy

Nov. 22, 2012 Rise Set
Actual Time 7:26 AM EET 5:10 PM EET
Civil Twilight 6:57 AM EET 5:40 PM EET
Nautical Twilight 6:23 AM EET 6:13 PM EET
Astronomical Twilight 5:51 AM EET 6:46 PM EET
Moon 1:48 PM EET (11/22) 1:27 AM EET (11/22)
Length of Visible Light 10h 43m
Length of Day
9h 44m
Waxing Gibbous, 68% of the Moon is Illuminated
Nov 22
Waxing Gibbous
Nov 28
Full
Dec 6
Last Quarter
Dec 13
New
Dec 20
First Quarter

Hourly Weather History & Observations

Time (EET) Temp. Windchill Dew Point Humidity Pressure Visibility Wind Dir Wind Speed Gust Speed Precip Events Conditions
12:20 AM 48.2 °F - 42.8 °F 82% 30.18 in - NNW 5.8 mph - N/A   Unknown
12:50 AM 48.2 °F - 42.8 °F 82% 30.18 in - NW 4.6 mph - N/A   Unknown
1:20 AM 46.4 °F 43.5 °F 42.8 °F 87% 30.18 in - North 5.8 mph - N/A   Unknown
1:50 AM 46.4 °F 44.3 °F 42.8 °F 87% 30.18 in - NNW 4.6 mph - N/A   Unknown
2:20 AM 46.4 °F 43.5 °F 42.8 °F 87% 30.18 in - NW 5.8 mph - N/A   Unknown
2:50 AM 46.4 °F 42.9 °F 42.8 °F 87% 30.18 in - NNW 6.9 mph - N/A   Unknown
3:20 AM 46.4 °F 45.2 °F 42.8 °F 87% 30.18 in - Variable 3.5 mph - N/A   Unknown
3:50 AM 46.4 °F 44.3 °F 41.0 °F 81% 30.18 in - NNW 4.6 mph - N/A   Unknown
4:20 AM 46.4 °F 45.2 °F 41.0 °F 81% 30.18 in - Variable 3.5 mph - N/A   Unknown
4:50 AM 44.6 °F 42.2 °F 42.8 °F 93% 30.18 in - NNW 4.6 mph - N/A   Unknown
5:20 AM 46.4 °F 43.5 °F 42.8 °F 87% 30.18 in - NW 5.8 mph - N/A   Unknown
5:50 AM 44.6 °F 43.1 °F 41.0 °F 87% 30.18 in - Variable 3.5 mph - N/A   Unknown
6:20 AM 44.6 °F 43.1 °F 42.8 °F 93% 30.18 in - Variable 3.5 mph - N/A   Unknown
6:50 AM 44.6 °F 43.1 °F 41.0 °F 87% 30.21 in - Variable 3.5 mph - N/A   Unknown
7:20 AM 42.8 °F 40.1 °F 41.0 °F 93% 30.21 in - NW 4.6 mph - N/A   Unknown
7:50 AM 42.8 °F - 41.0 °F 93% 30.21 in 6.2 mi Calm Calm - N/A   Scattered Clouds
8:50 AM 48.2 °F - 42.8 °F 82% 30.24 in 6.2 mi Calm Calm - N/A   Scattered Clouds
9:50 AM 51.8 °F - 42.8 °F 71% 30.24 in 6.2 mi Calm Calm - N/A   Scattered Clouds
10:50 AM 53.6 °F - 42.8 °F 67% 30.24 in 6.2 mi Calm Calm - N/A   Scattered Clouds
11:50 AM 55.4 °F - 46.4 °F 72% 30.24 in 6.2 mi SSE 4.6 mph - N/A   Scattered Clouds
12:50 PM 57.2 °F - 46.4 °F 67% 30.21 in 6.2 mi SE 4.6 mph - N/A   Mostly Cloudy
1:50 PM 53.6 °F - 46.4 °F 77% 30.21 in 6.2 mi ESE 4.6 mph - N/A   Mostly Cloudy
2:20 PM 55.4 °F - 44.6 °F 67% 30.21 in - East 4.6 mph - N/A   Unknown
2:50 PM 55.4 °F - 42.8 °F 63% 30.18 in - Variable 1.2 mph - N/A   Unknown
3:20 PM 53.6 °F - 42.8 °F 67% 30.18 in - Variable 1.2 mph - N/A   Unknown
3:50 PM 55.4 °F - 42.8 °F 63% 30.18 in - Calm Calm - N/A   Unknown
4:20 PM 55.4 °F - 42.8 °F 63% 30.18 in - Variable 1.2 mph - N/A   Unknown
4:50 PM 53.6 °F - 42.8 °F 67% 30.18 in - Variable 2.3 mph - N/A   Unknown
5:20 PM 51.8 °F - 44.6 °F 76% 30.21 in - Calm Calm - N/A   Unknown
5:50 PM 50.0 °F - 44.6 °F 82% 30.21 in - Calm Calm - N/A   Unknown
6:20 PM 48.2 °F - 42.8 °F 82% 30.21 in - Calm Calm - N/A   Unknown
6:50 PM 46.4 °F - 42.8 °F 87% 30.21 in - Variable 1.2 mph - N/A   Unknown
7:20 PM 44.6 °F 43.1 °F 41.0 °F 87% 30.21 in - Variable 3.5 mph - N/A   Unknown
7:50 PM 46.4 °F - 41.0 °F 81% 30.21 in - Variable 2.3 mph - N/A   Unknown
8:20 PM 44.6 °F - 41.0 °F 87% 30.21 in - Variable 2.3 mph - N/A   Unknown
8:50 PM 42.8 °F - 41.0 °F 93% 30.21 in - Variable 1.2 mph - N/A   Unknown
9:20 PM 42.8 °F - 41.0 °F 93% 30.21 in - Calm Calm - N/A   Unknown
9:50 PM 42.8 °F - 39.2 °F 87% 30.24 in - Variable 2.3 mph - N/A   Unknown
10:20 PM 41.0 °F - 39.2 °F 93% 30.24 in - Variable 2.3 mph - N/A   Unknown
10:50 PM 41.0 °F - 39.2 °F 93% 30.24 in - Variable 2.3 mph - N/A   Unknown
11:20 PM 41.0 °F - 39.2 °F 93% 30.24 in - Variable 1.2 mph - N/A   Unknown
11:50 PM 42.8 °F - 41.0 °F 93% 30.24 in - Variable 2.3 mph - N/A   Unknown